Location: Calberlah
(52.4230°N, 10.6240°E)
Time: 09:44:57
(UTC+00:00)

ERS-1 Rocket - Pass Details

Date: 19 May 2025
Orbit: 747 x 753 km, 98.2° (Epoch: 23 June)

Event Time Altitude Azimuth Distance (km) Brightness Sun altitude
Exits shadow 20:04:55 - 173° (S) 3,025 5.6 -6.8°
Reaches altitude 10° 20:06:49 10° 175° (S) 2,273 5.0 -7.0°
Maximum altitude 20:11:47 65° 258° (WSW) 830 3.4 -7.5°
Drops below altitude 10° 20:16:48 10° 340° (NNW) 2,290 6.8 -8.0°
Sets 20:19:08 0° 344° (NNW) 3,219 7.6 -8.3°
